#timestamp,LO_Frequency,Hit,StdDev 
1577041215.7,286047000.9,N
1577041235.5,286046998.6,N
1577041255.3,286047002.7,N
1577041275.2,286047002.7,N
1577041295.0,286047000.4,N
1577041295.9,286047000.4,N
1577041315.8,286047000.3,N
1577041335.6,286047000.2,N
1577041355.4,286047000.1,N
1577041375.3,286047001.2,N
1577041395.1,286046998.1,N
1577041415.9,286046998.8,N
1577041435.7,286046998.7,N
1577041455.5,286046998.5,N
1577041475.4,286047000.9,N
1577041495.2,286046998.3,N
1577041515.0,286046999.6,N
1577041515.9,286046999.6,N
1577041535.8,286046999.3,N
1577041555.6,286047001.2,N
1577041575.5,286047000.2,N
1577041595.3,286047000.2,N
1577041615.1,286047000.1,N
1577041635.9,286046999.7,N
1577041655.7,286047000.1,N
1577041675.5,286047000.5,N
1577041695.4,286046999.7,N
1577041715.2,286047000.9,N
1577041735.1,286046996.7,N
1577041736.0,286046996.7,N
1577041755.8,286046996.6,N
1577041775.6,286046997.1,N
1577041795.5,286046999.5,N
1577041815.3,286046998.9,N
1577041835.1,286047001.0,N
1577041855.9,286046998.5,N
1577041875.7,286046999.1,N
1577041895.6,286046998.9,N
1577041915.4,286046998.5,N
1577041935.2,286047000.5,N
1577041955.1,286047000.2,N
1577041956.0,286047000.2,N
1577041975.8,286047000.2,N
1577041995.7,286047002.2,N
1577042015.5,286047000.6,N
1577042035.3,286047000.1,N
1577042055.2,286047001.6,N
1577042075.0,286047003.2,N
1577042075.9,286047003.2,N
1577042095.7,286047001.9,N
1577042115.6,286047002.0,N
1577042135.4,286047000.0,N
1577042155.3,286047002.4,N
1577042175.1,286047000.2,N
1577042195.8,286047002.4,N
1577042215.7,286047002.9,N
1577042235.5,286047004.4,N
1577042255.4,286047002.5,N
1577042275.2,286047001.8,N
1577042295.0,286047004.1,N
1577042295.9,286047004.1,N
1577042315.8,286047005.9,Y
1577042335.6,286047003.6,P
1577042355.4,286047004.4,P
1577042375.3,286047005.5,P
1577042395.1,286047005.0,Y
1577042415.9,286047000.5,P
1577042435.7,286047004.0,N
1577042455.5,286047003.7,N
1577042475.4,286047003.8,N
1577042495.2,286047004.0,Y
1577042515.1,286046998.2,P
1577042516.0,286046998.2,N
1577042535.8,286046996.6,N
1577042555.6,286046997.3,N
1577042575.5,286046993.7,N
1577042595.3,286046995.6,N
1577042615.1,286046997.6,N
1577042635.9,286046997.3,N
1577042655.7,286046998.1,N
1577042675.6,286046996.7,N
1577042695.4,286046997.8,N
1577042715.2,286046995.3,N
1577042735.1,286046995.2,N
1577042736.0,286046995.2,N
1577042755.8,286046997.3,N
1577042775.6,286046997.1,N
1577042795.5,286046999.0,N
1577042815.3,286046997.5,N
1577042835.2,286046997.4,N
1577042855.0,286046996.2,N
1577042855.9,286046996.2,N
1577042875.7,286046993.3,Y
1577042895.6,286046996.9,P
1577042915.4,286046998.4,P
1577042935.3,286046996.5,P
1577042955.1,286047001.1,N
1577042956.0,286047001.1,N
1577042975.8,286047000.0,N
1577042995.7,286046998.2,N
1577043015.5,286047002.4,N
1577043035.4,286047001.3,N
1577043055.2,286047002.4,N
1577043075.0,286047000.3,N
1577043106.0,286047000.9,E
1577043115.9,286046998.5,N
1577043135.7,286046996.7,P
1577043155.6,286046995.8,P
1577043175.4,286046995.4,Y
1577043195.2,286046999.5,P
1577043215.1,286046997.2,N
1577043216.0,286046997.2,N
1577043235.8,286046997.4,N
1577043255.6,286046997.6,N
1577043275.5,286046995.6,Y
1577043295.3,286046998.3,P
1577043315.2,286046998.6,P
1577043335.0,286047000.5,N
1577043335.9,286047000.5,N
1577043355.7,286047000.1,N
1577043375.6,286046998.7,N
1577043395.4,286047000.4,N
1577043415.3,286046998.7,N
1577043435.1,286046996.5,Y
1577043436.0,286046996.5,P
1577043455.8,286047000.4,N
1577043475.7,286047000.1,N
1577043495.5,286047000.3,N
1577043515.3,286047002.4,N
1577043535.2,286047000.0,N
1577043555.0,286047000.0,N
1577043555.9,286047000.0,N
1577043575.8,286047000.7,N
1577043595.6,286047002.8,N
1577043615.4,286047002.8,N
1577043635.3,286047000.3,N
1577043655.1,286047002.3,N
1577043675.9,286047003.9,N
1577043695.7,286047006.0,Y
1577043715.5,286047004.2,P
1577043735.4,286047001.6,N
1577043755.2,286047001.9,N
1577043775.0,286047003.7,N
1577043775.9,286047003.7,N
1577043795.8,286047005.1,Y
1577043815.6,286047000.3,P
1577043835.5,286047000.6,N
1577043855.3,286047001.1,N
1577043875.1,286047001.5,N
1577043895.9,286047000.6,N
1577043915.7,286047000.1,N
1577043935.6,286047000.1,N
1577043955.4,286047002.2,N
1577043975.2,286047001.9,N
1577043995.1,286046999.9,N
1577043996.0,286046999.9,N
1577044015.8,286047000.7,N
1577044035.6,286047000.7,N
1577044055.5,286047000.0,N
1577044075.3,286046998.2,N
1577044095.2,286047000.1,N
1577044115.9,286047001.6,N
1577044135.7,286046999.8,N
1577044155.6,286047002.0,N
1577044175.4,286046999.7,N
1577044195.3,286047002.4,N
1577044215.1,286047000.4,N
1577044216.0,286047000.4,N
1577044235.8,286047002.9,N
1577044255.7,286047003.6,Y
1577044275.5,286047001.4,P
1577044295.3,286047003.5,P
1577044315.2,286047005.2,P
1577044335.0,286047003.0,N
1577044335.9,286047003.0,N
1577044355.8,286047004.1,N
1577044375.6,286047003.7,N
1577044395.4,286047003.6,N
1577044415.3,286047003.6,N
1577044435.1,286047006.0,Y
1577044455.9,286047002.8,P
1577044475.7,286047002.3,P
1577044495.5,286047004.1,P
1577044515.4,286047003.5,Y
1577044535.2,286046998.1,P
1577044555.0,286046997.0,N
1577044555.9,286046997.0,N
1577044575.8,286046997.0,N
1577044595.6,286046998.2,N
1577044615.5,286046998.6,N
1577044635.3,286047000.2,N
1577044655.1,286047000.4,N
1577044675.9,286046999.4,N
1577044695.7,286046997.3,N
1577044715.5,286046996.0,N
1577044735.4,286046995.9,N
1577044755.2,286046993.4,Y
1577044775.1,286046993.4,P
1577044776.0,286046993.4,N
1577044795.8,286046993.5,N
